CZ-2D R/B (54215 NORAD) Tracking and Keplerian Element Data

This shows tracking and keplerian element data for the satellite.

Feedback or suggestion? Click here.




ElementValue
Catalog54215
NameCZ-2D R/B
Epoch Orbit332
Epoch Day325.17636434
Epoch Year2022
RAAN285.9361
Inclination59.9058
Eccentricity0.0024642
Argument of Perigee219.973
Mean Anonmoly139.9558
Mean Motion14.33512697
Decay Rate-1.38E-06
L11 54215U 22142B 22325.17636434 -.00000138 00000+0 00000+0 0 9997
L22 54215 59.9058 285.9361 0024642 219.9730 139.9558 14.33512697 3327



Live tracking and technical data element details for CZ-2D R/B (NORAD 54215). CZ-2D R/B can be tracked NOW for your location showing map with azimuth and elevation plus other details from your city location.







IsCatalogInMostPopularTable: catalog: 54215, numindb: 8
Update: records affected: 1



GetName: 54215 CZ-2D R/B

Hit Count: updated at: Sun, 04 Dec 2022 22:29:07 GMT